TimeCDT,TemperatureF,Dew PointF,Humidity,Sea Level PressureIn,VisibilityMPH,Wind Direction,Wind SpeedMPH,Gust SpeedMPH,PrecipitationIn,Events,Conditions,WindDirDegrees,DateUTC
12:27 AM,77.0,53.6,44,30.08,8.0,NE,25.3,35.7,N/A,,Overcast,50,2012-09-08 05:27:00
12:53 AM,73.9,52.0,46,29.94,7.0,NE,25.3,41.4,N/A,,Overcast,40,2012-09-08 05:53:00
1:53 AM,72.0,52.0,49,29.98,10.0,NE,18.4,-,N/A,,Overcast,40,2012-09-08 06:53:00
2:40 AM,71.6,51.8,50,30.15,10.0,NNE,23.0,28.8,N/A,,Partly Cloudy,30,2012-09-08 07:40:00
2:53 AM,70.0,51.1,51,30.01,10.0,NNE,24.2,32.2,N/A,,Partly Cloudy,30,2012-09-08 07:53:00
3:53 AM,70.0,51.1,51,30.04,10.0,NE,19.6,27.6,N/A,,Scattered Clouds,40,2012-09-08 08:53:00
4:53 AM,69.1,51.1,53,30.06,10.0,NE,12.7,-,N/A,,Mostly Cloudy,40,2012-09-08 09:53:00
5:53 AM,68.0,48.9,50,30.10,10.0,ENE,11.5,25.3,N/A,,Overcast,70,2012-09-08 10:53:00
6:53 AM,66.9,50.0,54,30.13,10.0,ENE,15.0,25.3,N/A,,Overcast,60,2012-09-08 11:53:00
7:53 AM,64.0,53.1,67,30.16,10.0,NNE,10.4,-,N/A,,Overcast,30,2012-09-08 12:53:00
8:53 AM,64.9,48.0,54,30.19,10.0,ENE,9.2,-,N/A,,Overcast,60,2012-09-08 13:53:00
9:53 AM,68.0,46.0,45,30.20,10.0,NNE,9.2,-,N/A,,Mostly Cloudy,30,2012-09-08 14:53:00
10:53 AM,70.0,45.0,41,30.20,10.0,NE,15.0,-,N/A,,Overcast,50,2012-09-08 15:53:00
11:53 AM,73.0,43.0,34,30.20,10.0,ENE,17.3,23.0,N/A,,Mostly Cloudy,60,2012-09-08 16:53:00
12:53 PM,75.9,45.0,33,30.19,10.0,NE,13.8,18.4,N/A,,Partly Cloudy,40,2012-09-08 17:53:00
1:53 PM,75.9,45.0,33,30.17,10.0,NE,15.0,23.0,N/A,,Clear,50,2012-09-08 18:53:00
2:53 PM,79.0,42.1,27,30.14,10.0,NNE,9.2,-,N/A,,Clear,30,2012-09-08 19:53:00
3:53 PM,79.0,42.1,27,30.13,10.0,NE,16.1,24.2,N/A,,Clear,40,2012-09-08 20:53:00
4:53 PM,79.0,39.9,25,30.11,10.0,NNE,13.8,19.6,N/A,,Clear,30,2012-09-08 21:53:00
5:53 PM,77.0,43.0,30,30.10,10.0,ENE,10.4,18.4,N/A,,Clear,60,2012-09-08 22:53:00
6:53 PM,75.9,43.0,31,30.11,10.0,ENE,9.2,-,N/A,,Clear,60,2012-09-08 23:53:00
7:53 PM,73.0,42.1,33,30.12,10.0,NNE,16.1,20.7,N/A,,Clear,30,2012-09-09 00:53:00
8:53 PM,70.0,39.9,33,30.14,10.0,NE,12.7,-,N/A,,Clear,40,2012-09-09 01:53:00
9:53 PM,69.8,44.6,40,30.25,10.0,NE,5.8,-,N/A,,Clear,50,2012-09-09 02:53:00
10:53 PM,66.9,46.9,49,30.16,10.0,NNE,3.5,-,N/A,,Clear,30,2012-09-09 03:53:00
11:53 PM,66.9,48.0,51,30.15,10.0,NNE,4.6,-,N/A,,Clear,20,2012-09-09 04:53:00